Location: Foots Cray
(51.4000°N, 0.1167°E)
Time: 02:27:01
(UTC+00:00)

NOSS 0 Rocket - Pass Details

Date: 15 May 2026
Orbit: 936 x 952 km, 70.0° (Epoch: 8 June)

Event Time Altitude Azimuth Distance (km) Brightness Sun altitude
Rises 23:19:25 0° 326° (NNW) 3,617 8.2 -19.1°
Reaches altitude 10° 23:21:58 10° 324° (NW) 2,666 7.2 -19.2°
Maximum altitude 23:28:05 67° 244° (WSW) 1,015 4.0 -19.3°
Enters shadow 23:30:48 34° 172° (S) 1,496 4.4 -19.3°
